This is the latest recevied weather packets stored in our database for station/object EA3CO-11. If no packets are shown the sender has not sent any weather packets the latest 10 day(s).
| Time | Temp. | Humidity | Pressure | Rain* | Wind** | Luminosity | Snow |
|---|---|---|---|---|---|---|---|
| 1777959159 | 13.33° C | 84% | 1014.1 hPa | - | - | - | - |
| 1777958259 | 12.78° C | 88% | 1014.1 hPa | - | - | - | - |
| 1777957359 | 12.22° C | 90% | 1014.1 hPa | - | - | - | - |
| 1777956459 | 12.22° C | 91% | 1014.1 hPa | - | - | - | - |
| 1777955558 | 12.22° C | 89% | 1014.1 hPa | - | - | - | - |
| 1777954658 | 12.22° C | 89% | 1014 hPa | - | - | - | - |
| 1777953758 | 12.22° C | 88% | 1014 hPa | - | - | - | - |
| 1777952858 | 12.22° C | 87% | 1013.9 hPa | - | - | - | - |
| 1777951958 | 12.22° C | 87% | 1014.1 hPa | - | - | - | - |
| 1777951058 | 12.22° C | 88% | 1014.2 hPa | - | - | - | - |
| 1777950158 | 11.67° C | 90% | 1014.2 hPa | - | - | - | - |
| 1777949257 | 12.22° C | 89% | 1014.2 hPa | - | - | - | - |
| 1777948357 | 12.22° C | 88% | 1014.2 hPa | - | - | - | - |
| 1777947457 | 12.22° C | 90% | 1014.2 hPa | - | - | - | - |
| 1777946557 | 12.22° C | 92% | 1014.1 hPa | - | - | - | - |
| 1777945657 | 12.78° C | 92% | 1014 hPa | - | - | - | - |
| 1777944757 | 12.78° C | 93% | 1014.1 hPa | - | - | - | - |
| 1777943857 | 12.78° C | 94% | 1014 hPa | - | - | - | - |
| 1777942957 | 12.22° C | 93% | 1014.1 hPa | - | - | - | - |
| 1777942057 | 12.78° C | 94% | 1014.2 hPa | - | - | - | - |
| 1777941156 | 12.78° C | 94% | 1014.2 hPa | - | - | - | - |
| 1777940256 | 13.33° C | 95% | 1014.2 hPa | - | - | - | - |
| 1777939356 | 13.33° C | 95% | 1014.3 hPa | - | - | - | - |
| 1777938456 | 13.89° C | 94% | 1014.3 hPa | - | - | - | - |
| 1777937556 | 13.33° C | 96% | 1014.2 hPa | - | - | - | - |
* Rain since midnight (hover to see other rain measurements)
** Current wind speed in m/s (hover to see current wind gust speed)